Regional Weather Roundup
Issued by NWS

Home | Current Version | Previous Version | Text Only | Print | Product List | Glossary Off
Versions: 1 2 3 4 5 6 7 8 9 10 11 12 13 14 15 16 17 18 19 20 21 22 23 24 25 26 27 28 29 30 31 32 33 34 35 36 37 38 39 40 41 42 43 44 45 46 47 48 49 50

000
ASUS43 KIND 310409
RWRIN

WEATHER ROUNDUP FOR INDIANA
NATIONAL WEATHER SERVICE INDIANAPOLIS IN
1200 AM EDT FRI JUL 31 2015

NOTE: "FAIR" INDICATES FEW OR NO CLOUDS BELOW 12,000 FEET WITH NO
SIGNIFICANT WEATHER AND/OR OBSTRUCTIONS TO VISIBILITY.

* - STATION DOES NOT REPORT WEATHER SUCH AS PRECIPITATION OR FOG.

+ - STATION NOT QUALITY CONTROLLED BY THE NATIONAL WEATHER SERVICE.
    USE DATA WITH CAUTION...ESPECIALLY DEWPOINT AND RELATIVE
    HUMIDITY OBSERVATIONS.

INZ001>003-010>013-019-020-310500-
NORTHWEST INDIANA

CITY           SKY/WX    TMP DP  RH WIND       PRES   REMARKS
GARY /AIRPORT/ CLEAR     77  61  57 W6        30.02S
KNOX *+        CLEAR     68  59  73 SW6       30.02S
LA PORTE +     CLEAR     69  61  77 SW5       30.03S
MICHIGAN CITY+ CLEAR     68  59  73 SW3       30.02S
MONTICELLO +   CLEAR     70  64  80 SW3       30.04R
RENSSELAER +   CLEAR     68  66  94 SW5       30.05R
VALPARAISO     CLEAR     70  60  70 SW6       30.03S

$$

LMZ046-743>745-310500-
SOUTHERN LAKE MICHIGAN

STATION/POSITION TIME  TEMP    WIND        PRES    WAVE
                       AIR SEA DIR/SP/G            HT
                 (UTC) (F)     (DEG/KT/KT) (MB)    (FT)
BURNS HARBOR     0300   80     230/  9/ 11 1016.6R
MICHIGAN CITY    0300   76     190/  7/  8   N/A
5NW MICH CITY    0400   76 75  240/  8/ 10   N/A     1

$$

INZ004-005-014>016-021>024-310500-
NORTH CENTRAL INDIANA

CITY           SKY/WX    TMP DP  RH WIND       PRES   REMARKS
GOSHEN         CLEAR     66  59  78 S3        30.02S
LOGANSPORT +   CLEAR     64  57  77 SW5       30.06R
PERU/GRISSOM   CLEAR     66  62  85 SW8       30.04S
ROCHESTER +    CLEAR     72  61  68 SW5       30.05R
SOUTH BEND     CLEAR     70  60  70 SW9       30.02S
WARSAW +       CLEAR     64  61  88 CALM      30.03S

$$

INZ006>009-017-018-025>027-310500-
NORTHEAST INDIANA

CITY           SKY/WX    TMP DP  RH WIND       PRES   REMARKS
ANGOLA *+      CLEAR     64  61  88 CALM      30.02S
AUBURN +       CLEAR     70  55  60 SW5       30.03S
FORT WAYNE     CLEAR     67  60  78 SW6       30.04S
HUNTINGTON +   CLEAR     70  61  73 SW5       30.04S

$$

INZ028-029-035-036-043>045-051>053-310500-
WEST CENTRAL INDIANA

CITY           SKY/WX    TMP DP  RH WIND       PRES   REMARKS
CRAWFORDSVL +  CLEAR     63  63 100 CALM        N/A
GREENCASTLE +  CLEAR     64  59  82 CALM      30.09S
LAFAYETTE      CLEAR     68  65  90 W5        30.05S
TERRE HAUTE    CLEAR     66  63  90 CALM      30.08R

$$

INZ030>032-037>040-046>048-054>057-064-065-310500-
CENTRAL INDIANA

CITY           SKY/WX    TMP DP  RH WIND       PRES   REMARKS
FISHERS *+     CLEAR     66  63  88 CALM      30.07S
FRANKFORT +    CLEAR    N/A N/A N/A SW6       30.08S
GREENWOOD *+   CLEAR     64  61  88 CALM      30.08S
INDIANAPOLIS   PTCLDY    71  61  70 W6        30.06S
-EAGLE CREEK   CLEAR     72  63  73 W3        30.07R
KOKOMO *+      CLEAR     68  59  73 W7        30.06R
MARION +       CLEAR     65  60  83 CALM      30.06S
MT COMFORT *+  CLEAR     66 N/A N/A CALM      30.08S
SHELBYVILLE    CLEAR     67  62  84 SW3       30.07R
ZIONSVILLE +   CLEAR     68  61  77 W5        30.08S

$$

INZ033-034-041-042-049-050-058-059-310500-
EAST CENTRAL INDIANA

CITY           SKY/WX    TMP DP  RH WIND       PRES   REMARKS
MUNCIE         CLEAR     67  60  78 SW3       30.06S

$$

INZ060-061-067>069-081>083-085>088-310500-
SOUTHWEST INDIANA

CITY           SKY/WX    TMP DP  RH WIND       PRES   REMARKS
EVANSVILLE     CLEAR     75  64  68 W5        30.09S
HUNTINGBURG *+ CLEAR     66  63  88 CALM      30.09S
WASHINGTON +   CLEAR     71  65  82 W5        30.08S

$$

INZ062-063-066-070>080-084-089>092-310500-
SOUTH CENTRAL AND SOUTHEAST INDIANA

CITY           SKY/WX    TMP DP  RH WIND       PRES   REMARKS
BLOOMINGTON    CLEAR     65  63  93 CALM      30.09S
MADISON *+     CLEAR     64  63  94 CALM      30.10S
NORTH VERNON + CLEAR     66  66 100 CALM      30.09R
SEYMOUR +      CLEAR     66  64  94 CALM      30.08R

$$



USA.gov is the U.S. government's official web portal to all federal, state and local government web resources and services.